Wetterdaten: Woche 06.03.17 - 12.03.17 (KW10)
Datum Zeit Temp. I. Temp. A. Feuchte I. Feuchte A. Luftdruck Regen Wind Richtung Sonnenschein UV Solar Taupunkt Windchill Windben
06.03.2017 00:00 23,9 C 4,1 C 53 % 89 % 1001,7 hPa 0,2 l/m 9,1 km/h (2 Bft) S 0,00 h 0,0 UV-I 0 W/m 2,6 C 1,7 C 14,4 km/h (3 Bft)
06.03.2017 01:00 23,6 C 3,7 C 53 % 92 % 1001,7 hPa 0,0 l/m 8,5 km/h (2 Bft) S 0,00 h 0,0 UV-I 0 W/m 2,4 C 1,6 C 13,8 km/h (3 Bft)
06.03.2017 02:00 23,4 C 3,7 C 53 % 92 % 1001,7 hPa 0,0 l/m 8,4 km/h (2 Bft) S 0,00 h 0,0 UV-I 0 W/m 2,5 C 1,7 C 13,8 km/h (3 Bft)
06.03.2017 03:00 23,3 C 3,7 C 52 % 92 % 1001,7 hPa 0,0 l/m 9,1 km/h (2 Bft) S 0,00 h 0,0 UV-I 0 W/m 2,5 C 1,3 C 14,4 km/h (3 Bft)
06.03.2017 04:00 23,3 C 3,3 C 53 % 92 % 1002,2 hPa 0,8 l/m 7,0 km/h (2 Bft) SW 0,00 h 0,0 UV-I 0 W/m 2,2 C 2,0 C 13,0 km/h (3 Bft)
06.03.2017 05:00 23,2 C 2,6 C 53 % 93 % 1002,8 hPa 1,0 l/m 6,0 km/h (2 Bft) SW 0,00 h 0,0 UV-I 0 W/m 1,6 C 1,8 C 11,7 km/h (2 Bft)
06.03.2017 06:00 23,1 C 2,5 C 53 % 94 % 1003,1 hPa 0,2 l/m 5,3 km/h (1 Bft) SW 0,00 h 0,0 UV-I 0 W/m 1,6 C 2,0 C 11,1 km/h (2 Bft)
06.03.2017 07:00 23,2 C 2,8 C 53 % 94 % 1003,2 hPa 0,0 l/m 2,4 km/h (1 Bft) W-SW 0,00 h 0,0 UV-I 10 W/m 1,9 C 2,6 C 6,0 km/h (2 Bft)
06.03.2017 08:00 23,3 C 3,0 C 54 % 94 % 1003,0 hPa 0,0 l/m 5,2 km/h (1 Bft) S 0,00 h 0,0 UV-I 51 W/m 2,2 C 2,5 C 10,2 km/h (2 Bft)
06.03.2017 09:00 23,5 C 3,2 C 54 % 94 % 1002,8 hPa 0,2 l/m 5,9 km/h (2 Bft) S-SW 0,00 h 0,5 UV-I 85 W/m 2,4 C 2,5 C 11,6 km/h (2 Bft)
06.03.2017 10:00 23,6 C 3,5 C 53 % 94 % 1002,5 hPa 0,2 l/m 7,0 km/h (2 Bft) S 0,00 h 0,5 UV-I 61 W/m 2,6 C 2,3 C 12,8 km/h (3 Bft)
06.03.2017 11:00 23,6 C 4,1 C 53 % 92 % 1002,2 hPa 0,0 l/m 6,9 km/h (2 Bft) S 0,20 h 0,8 UV-I 121 W/m 3,0 C 2,6 C 12,5 km/h (3 Bft)
06.03.2017 12:00 23,8 C 4,9 C 52 % 90 % 1001,6 hPa 0,0 l/m 8,8 km/h (2 Bft) S 0,63 h 1,2 UV-I 181 W/m 3,4 C 2,8 C 14,9 km/h (3 Bft)
06.03.2017 13:00 23,7 C 5,1 C 51 % 89 % 1001,0 hPa 0,0 l/m 6,2 km/h (2 Bft) S 0,55 h 0,9 UV-I 160 W/m 3,4 C 4,1 C 11,8 km/h (2 Bft)
06.03.2017 14:00 23,7 C 4,5 C 51 % 91 % 1000,7 hPa 0,2 l/m 7,7 km/h (2 Bft) S 0,20 h 0,7 UV-I 121 W/m 3,3 C 3,0 C 13,0 km/h (3 Bft)
06.03.2017 15:00 23,6 C 4,2 C 51 % 92 % 1000,4 hPa 0,2 l/m 5,4 km/h (1 Bft) S 0,00 h 0,5 UV-I 79 W/m 3,0 C 3,2 C 9,7 km/h (2 Bft)
06.03.2017 16:00 23,6 C 4,2 C 49 % 93 % 1000,4 hPa 0,2 l/m 0,7 km/h (0 Bft) S 0,00 h 0,0 UV-I 43 W/m 3,2 C 4,2 C 3,0 km/h (1 Bft)
06.03.2017 17:00 23,7 C 4,0 C 50 % 93 % 1000,6 hPa 0,0 l/m 0,0 km/h (0 Bft) N 0,00 h 0,0 UV-I 8 W/m 2,9 C 4,0 C 0,1 km/h (0 Bft)
06.03.2017 18:00 23,8 C 3,8 C 50 % 93 % 1000,7 hPa 0,0 l/m 0,0 km/h (0 Bft) N 0,00 h 0,0 UV-I 0 W/m 2,8 C 3,8 C 0,0 km/h (0 Bft)
06.03.2017 19:00 23,8 C 3,6 C 52 % 93 % 1001,2 hPa 0,2 l/m 0,6 km/h (0 Bft) SW 0,00 h 0,0 UV-I 0 W/m 2,5 C 3,6 C 2,3 km/h (1 Bft)
06.03.2017 20:00 24,0 C 3,3 C 53 % 93 % 1001,7 hPa 0,0 l/m 0,8 km/h (0 Bft) W-SW 0,00 h 0,0 UV-I 0 W/m 2,3 C 3,3 C 2,5 km/h (1 Bft)
06.03.2017 21:00 24,2 C 3,1 C 53 % 94 % 1002,2 hPa 0,0 l/m 0,0 km/h (0 Bft) N 0,00 h 0,0 UV-I 0 W/m 2,2 C 3,1 C 0,0 km/h (0 Bft)
06.03.2017 22:00 24,4 C 2,8 C 53 % 94 % 1002,6 hPa 0,0 l/m 0,0 km/h (0 Bft) N 0,00 h 0,0 UV-I 0 W/m 1,9 C 2,8 C 0,0 km/h (0 Bft)
06.03.2017 23:00 24,0 C 2,8 C 53 % 95 % 1003,1 hPa 0,0 l/m 0,1 km/h (0 Bft) SW 0,00 h 0,0 UV-I 0 W/m 2,1 C 2,8 C 0,7 km/h (0 Bft)
07.03.2017 00:00 23,7 C 2,9 C 53 % 95 % 1003,7 hPa 0,0 l/m 0,9 km/h (0 Bft) W-SW 0,00 h 0,0 UV-I 0 W/m 2,2 C 2,9 C 3,7 km/h (1 Bft)
07.03.2017 01:00 23,6 C 3,1 C 53 % 95 % 1004,4 hPa 0,0 l/m 3,6 km/h (1 Bft) W-SW 0,00 h 0,0 UV-I 0 W/m 2,3 C 3,1 C 8,4 km/h (2 Bft)
07.03.2017 02:00 23,4 C 3,1 C 54 % 94 % 1004,9 hPa 0,0 l/m 1,8 km/h (1 Bft) W 0,00 h 0,0 UV-I 0 W/m 2,2 C 3,1 C 4,8 km/h (1 Bft)
07.03.2017 03:00 23,4 C 2,9 C 54 % 94 % 1005,4 hPa 0,0 l/m 1,6 km/h (1 Bft) W-SW 0,00 h 0,0 UV-I 0 W/m 2,1 C 2,9 C 4,9 km/h (1 Bft)
07.03.2017 04:00 23,3 C 2,7 C 54 % 94 % 1006,0 hPa 0,0 l/m 3,0 km/h (1 Bft) W-SW 0,00 h 0,0 UV-I 0 W/m 1,9 C 2,7 C 7,3 km/h (2 Bft)
07.03.2017 05:00 23,2 C 2,8 C 54 % 94 % 1006,5 hPa 0,2 l/m 2,1 km/h (1 Bft) W-SW 0,00 h 0,0 UV-I 0 W/m 1,9 C 2,8 C 6,0 km/h (2 Bft)
07.03.2017 06:00 23,2 C 2,8 C 54 % 94 % 1007,0 hPa 0,2 l/m 3,0 km/h (1 Bft) W-SW 0,00 h 0,0 UV-I 0 W/m 1,9 C 2,8 C 6,9 km/h (2 Bft)
07.03.2017 07:00 23,3 C 2,7 C 55 % 94 % 1008,0 hPa 0,2 l/m 2,2 km/h (1 Bft) W 0,00 h 0,0 UV-I 16 W/m 1,9 C 2,7 C 6,1 km/h (2 Bft)
07.03.2017 08:00 23,4 C 2,7 C 55 % 95 % 1009,1 hPa 0,0 l/m 2,3 km/h (1 Bft) W-NW 0,00 h 0,0 UV-I 22 W/m 2,0 C 2,6 C 5,7 km/h (1 Bft)
07.03.2017 09:00 23,5 C 3,0 C 52 % 95 % 1009,9 hPa 0,0 l/m 4,4 km/h (1 Bft) W-NW 0,15 h 0,8 UV-I 82 W/m 2,3 C 2,6 C 8,7 km/h (2 Bft)
07.03.2017 10:00 23,5 C 4,2 C 50 % 91 % 1010,7 hPa 0,0 l/m 8,1 km/h (2 Bft) W-NW 0,23 h 0,7 UV-I 113 W/m 2,9 C 2,2 C 12,4 km/h (3 Bft)
07.03.2017 11:00 23,7 C 4,0 C 48 % 91 % 1011,6 hPa 0,0 l/m 6,0 km/h (2 Bft) W-NW 0,13 h 0,8 UV-I 97 W/m 2,6 C 3,0 C 10,3 km/h (2 Bft)
07.03.2017 12:00 23,6 C 4,7 C 47 % 88 % 1012,0 hPa 0,0 l/m 8,8 km/h (2 Bft) NW 0,78 h 1,2 UV-I 220 W/m 2,8 C 2,6 C 13,8 km/h (3 Bft)
07.03.2017 13:00 23,7 C 5,6 C 47 % 82 % 1012,6 hPa 0,0 l/m 6,7 km/h (2 Bft) N-NW 0,88 h 1,5 UV-I 286 W/m 2,8 C 4,5 C 12,3 km/h (3 Bft)
07.03.2017 14:00 23,8 C 5,9 C 46 % 79 % 1013,3 hPa 0,0 l/m 9,1 km/h (2 Bft) N 0,77 h 1,2 UV-I 244 W/m 2,5 C 3,7 C 14,5 km/h (3 Bft)
07.03.2017 15:00 23,8 C 5,5 C 45 % 79 % 1014,2 hPa 0,0 l/m 5,8 km/h (2 Bft) N 0,40 h 0,7 UV-I 127 W/m 2,2 C 4,8 C 10,2 km/h (2 Bft)
07.03.2017 16:00 23,5 C 4,9 C 45 % 81 % 1015,1 hPa 0,0 l/m 3,1 km/h (1 Bft) N 0,05 h 0,5 UV-I 67 W/m 2,0 C 4,7 C 5,9 km/h (2 Bft)
07.03.2017 17:00 23,8 C 4,6 C 47 % 81 % 1016,1 hPa 0,0 l/m 3,9 km/h (1 Bft) N 0,00 h 0,0 UV-I 10 W/m 1,5 C 4,2 C 6,2 km/h (2 Bft)
07.03.2017 18:00 23,9 C 3,8 C 47 % 83 % 1017,2 hPa 0,0 l/m 0,0 km/h (0 Bft) N 0,00 h 0,0 UV-I 0 W/m 1,1 C 3,8 C 0,0 km/h (0 Bft)
07.03.2017 19:00 24,3 C 2,4 C 47 % 86 % 1017,9 hPa 0,0 l/m 0,0 km/h (0 Bft) N 0,00 h 0,0 UV-I 0 W/m 0,3 C 2,4 C 0,0 km/h (0 Bft)
07.03.2017 20:00 24,4 C 1,3 C 47 % 89 % 1018,5 hPa 0,0 l/m 0,0 km/h (0 Bft) N 0,00 h 0,0 UV-I 0 W/m -0,4 C 1,3 C 0,0 km/h (0 Bft)
07.03.2017 21:00 24,5 C 0,7 C 48 % 92 % 1019,3 hPa 0,0 l/m 0,2 km/h (0 Bft) S-SO 0,00 h 0,0 UV-I 0 W/m -0,5 C 0,7 C 0,4 km/h (0 Bft)
07.03.2017 22:00 24,5 C 1,1 C 48 % 93 % 1019,8 hPa 1,2 l/m 0,0 km/h (0 Bft) N 0,00 h 0,0 UV-I 0 W/m 0,2 C 1,1 C 0,0 km/h (0 Bft)
07.03.2017 23:00 24,2 C 1,6 C 49 % 95 % 1020,4 hPa 0,0 l/m 0,0 km/h (0 Bft) N 0,00 h 0,0 UV-I 0 W/m 0,8 C 1,6 C 0,0 km/h (0 Bft)
08.03.2017 00:00 23,8 C 2,1 C 49 % 95 % 1021,1 hPa 0,0 l/m 0,0 km/h (0 Bft) N 0,00 h 0,0 UV-I 0 W/m 1,4 C 2,1 C 0,0 km/h (0 Bft)
08.03.2017 01:00 23,6 C 2,4 C 49 % 95 % 1021,5 hPa 0,0 l/m 0,0 km/h (0 Bft) N 0,00 h 0,0 UV-I 0 W/m 1,6 C 2,4 C 0,0 km/h (0 Bft)
08.03.2017 02:00 23,5 C 2,4 C 50 % 95 % 1021,6 hPa 0,0 l/m 0,2 km/h (0 Bft) S-SW 0,00 h 0,0 UV-I 0 W/m 1,7 C 2,4 C 0,9 km/h (0 Bft)
08.03.2017 03:00 23,4 C 2,4 C 50 % 96 % 1021,9 hPa 0,0 l/m 0,2 km/h (0 Bft) S-SO 0,00 h 0,0 UV-I 0 W/m 1,8 C 2,4 C 0,8 km/h (0 Bft)
08.03.2017 04:00 23,3 C 2,4 C 50 % 96 % 1022,4 hPa 0,0 l/m 0,1 km/h (0 Bft) S-SW 0,00 h 0,0 UV-I 0 W/m 1,8 C 2,4 C 0,7 km/h (0 Bft)
08.03.2017 05:00 23,2 C 2,2 C 51 % 95 % 1022,9 hPa 0,0 l/m 0,1 km/h (0 Bft) SW 0,00 h 0,0 UV-I 0 W/m 1,5 C 2,2 C 0,7 km/h (0 Bft)
08.03.2017 06:00 23,2 C 1,9 C 51 % 95 % 1023,3 hPa 0,0 l/m 0,1 km/h (0 Bft) S 0,00 h 0,0 UV-I 0 W/m 1,2 C 1,9 C 0,4 km/h (0 Bft)
08.03.2017 07:00 23,5 C 2,2 C 51 % 96 % 1023,8 hPa 0,0 l/m 0,9 km/h (0 Bft) S 0,00 h 0,0 UV-I 17 W/m 1,6 C 2,2 C 2,7 km/h (1 Bft)
08.03.2017 08:00 23,9 C 2,5 C 52 % 96 % 1024,3 hPa 0,0 l/m 0,6 km/h (0 Bft) S 0,00 h 0,0 UV-I 21 W/m 1,9 C 2,5 C 2,5 km/h (1 Bft)
08.03.2017 09:00 24,1 C 2,8 C 51 % 95 % 1024,1 hPa 0,0 l/m 2,5 km/h (1 Bft) S 0,00 h 0,6 UV-I 72 W/m 2,1 C 2,8 C 6,3 km/h (2 Bft)
08.03.2017 10:00 23,6 C 3,7 C 47 % 92 % 1024,2 hPa 0,0 l/m 3,5 km/h (1 Bft) S 0,47 h 0,9 UV-I 148 W/m 2,6 C 3,7 C 8,2 km/h (2 Bft)
08.03.2017 11:00 23,3 C 4,6 C 44 % 87 % 1024,0 hPa 0,0 l/m 4,7 km/h (1 Bft) S 0,57 h 1,1 UV-I 171 W/m 2,6 C 4,3 C 10,0 km/h (2 Bft)
08.03.2017 12:00 23,7 C 5,2 C 46 % 83 % 1023,8 hPa 0,0 l/m 5,1 km/h (1 Bft) S 0,90 h 1,3 UV-I 205 W/m 2,6 C 4,9 C 9,7 km/h (2 Bft)
08.03.2017 13:00 23,8 C 5,9 C 46 % 80 % 1022,9 hPa 0,0 l/m 7,4 km/h (2 Bft) S-SO 1,00 h 1,2 UV-I 211 W/m 2,8 C 4,6 C 13,0 km/h (3 Bft)
08.03.2017 14:00 23,8 C 6,3 C 47 % 78 % 1022,1 hPa 0,0 l/m 8,9 km/h (2 Bft) S 1,00 h 1,1 UV-I 200 W/m 2,7 C 4,2 C 16,0 km/h (3 Bft)
08.03.2017 15:00 23,8 C 6,5 C 47 % 77 % 1021,2 hPa 0,2 l/m 9,0 km/h (2 Bft) S-SO 0,12 h 0,7 UV-I 120 W/m 2,8 C 4,1 C 15,8 km/h (3 Bft)
08.03.2017 16:00 23,7 C 6,0 C 48 % 80 % 1020,4 hPa 0,0 l/m 10,5 km/h (2 Bft) S-SO 0,00 h 0,0 UV-I 45 W/m 2,8 C 2,9 C 17,2 km/h (3 Bft)
08.03.2017 17:00 23,7 C 5,7 C 48 % 81 % 1019,2 hPa 0,0 l/m 10,2 km/h (2 Bft) S-SO 0,00 h 0,0 UV-I 21 W/m 2,7 C 2,8 C 16,1 km/h (3 Bft)
08.03.2017 18:00 24,0 C 5,5 C 49 % 81 % 1018,7 hPa 0,0 l/m 7,9 km/h (2 Bft) S-SO 0,00 h 0,0 UV-I 0 W/m 2,5 C 4,0 C 13,6 km/h (3 Bft)
08.03.2017 19:00 24,0 C 5,6 C 49 % 79 % 1017,7 hPa 0,0 l/m 9,7 km/h (2 Bft) S-SO 0,00 h 0,0 UV-I 0 W/m 2,2 C 2,9 C 16,7 km/h (3 Bft)
08.03.2017 20:00 24,0 C 4,5 C 49 % 87 % 1017,9 hPa 1,0 l/m 11,3 km/h (2 Bft) S 0,00 h 0,0 UV-I 0 W/m 2,5 C 0,9 C 18,5 km/h (3 Bft)
08.03.2017 21:00 24,2 C 3,4 C 50 % 92 % 1017,3 hPa 1,0 l/m 8,9 km/h (2 Bft) S 0,00 h 0,0 UV-I 0 W/m 2,3 C 0,8 C 15,1 km/h (3 Bft)
08.03.2017 22:00 24,2 C 3,3 C 50 % 94 % 1016,7 hPa 0,2 l/m 3,5 km/h (1 Bft) S 0,00 h 0,0 UV-I 0 W/m 2,4 C 3,2 C 8,0 km/h (2 Bft)
08.03.2017 23:00 23,9 C 3,7 C 50 % 95 % 1016,2 hPa 0,4 l/m 4,5 km/h (1 Bft) S 0,00 h 0,0 UV-I 0 W/m 2,9 C 3,4 C 9,8 km/h (2 Bft)
09.03.2017 00:00 23,6 C 3,9 C 51 % 95 % 1016,1 hPa 0,0 l/m 2,1 km/h (1 Bft) S 0,00 h 0,0 UV-I 0 W/m 3,2 C 3,9 C 6,0 km/h (2 Bft)
09.03.2017 01:00 23,4 C 4,2 C 51 % 96 % 1016,3 hPa 0,0 l/m 0,6 km/h (0 Bft) SW 0,00 h 0,0 UV-I 0 W/m 3,6 C 4,2 C 2,1 km/h (1 Bft)
09.03.2017 02:00 23,3 C 4,4 C 51 % 96 % 1016,6 hPa 0,2 l/m 0,1 km/h (0 Bft) S-SW 0,00 h 0,0 UV-I 0 W/m 3,8 C 4,4 C 1,0 km/h (0 Bft)
09.03.2017 03:00 23,2 C 5,1 C 51 % 97 % 1016,9 hPa 0,0 l/m 0,9 km/h (0 Bft) W-SW 0,00 h 0,0 UV-I 0 W/m 4,6 C 5,1 C 2,9 km/h (1 Bft)
09.03.2017 04:00 23,2 C 5,7 C 51 % 97 % 1017,3 hPa 0,0 l/m 1,4 km/h (1 Bft) W 0,00 h 0,0 UV-I 0 W/m 5,2 C 5,6 C 3,9 km/h (1 Bft)
09.03.2017 05:00 23,1 C 5,7 C 52 % 97 % 1017,8 hPa 0,0 l/m 1,1 km/h (0 Bft) W 0,00 h 0,0 UV-I 0 W/m 5,2 C 5,7 C 3,0 km/h (1 Bft)
09.03.2017 06:00 23,1 C 5,8 C 52 % 96 % 1018,3 hPa 0,0 l/m 0,1 km/h (0 Bft) W 0,00 h 0,0 UV-I 6 W/m 5,2 C 5,8 C 0,3 km/h (0 Bft)
09.03.2017 07:00 23,3 C 5,8 C 52 % 96 % 1018,8 hPa 0,0 l/m 0,0 km/h (0 Bft) N 0,00 h 0,0 UV-I 24 W/m 5,2 C 5,8 C 0,0 km/h (0 Bft)
09.03.2017 08:00 23,4 C 6,1 C 53 % 96 % 1019,1 hPa 0,0 l/m 1,7 km/h (1 Bft) NW 0,02 h 0,6 UV-I 76 W/m 5,5 C 6,0 C 3,6 km/h (1 Bft)
09.03.2017 09:00 23,9 C 6,7 C 52 % 89 % 1019,3 hPa 0,0 l/m 1,2 km/h (1 Bft) NW 0,50 h 0,8 UV-I 151 W/m 5,1 C 6,7 C 3,2 km/h (1 Bft)
09.03.2017 10:00 24,1 C 6,9 C 52 % 85 % 1019,3 hPa 0,0 l/m 0,1 km/h (0 Bft) NW 0,67 h 1,1 UV-I 193 W/m 4,5 C 6,9 C 0,3 km/h (0 Bft)
09.03.2017 11:00 24,2 C 7,6 C 52 % 82 % 1019,2 hPa 0,0 l/m 2,0 km/h (1 Bft) W-SW 1,00 h 1,6 UV-I 321 W/m 4,7 C 7,6 C 4,6 km/h (1 Bft)
09.03.2017 12:00 24,0 C 7,8 C 52 % 80 % 1019,0 hPa 0,0 l/m 2,5 km/h (1 Bft) W-SW 1,00 h 1,4 UV-I 232 W/m 4,7 C 7,8 C 5,9 km/h (2 Bft)
09.03.2017 13:00 24,1 C 8,8 C 53 % 79 % 1018,5 hPa 0,0 l/m 3,5 km/h (1 Bft) SW 1,00 h 1,6 UV-I 312 W/m 5,4 C 8,7 C 7,9 km/h (2 Bft)
09.03.2017 14:00 23,9 C 9,3 C 49 % 79 % 1017,9 hPa 0,0 l/m 3,1 km/h (1 Bft) S 0,85 h 1,2 UV-I 225 W/m 5,8 C 9,3 C 7,2 km/h (2 Bft)
09.03.2017 15:00 23,4 C 10,1 C 44 % 73 % 1017,4 hPa 0,0 l/m 2,6 km/h (1 Bft) S 0,80 h 1,0 UV-I 249 W/m 5,5 C 10,1 C 6,9 km/h (2 Bft)
09.03.2017 16:00 23,3 C 9,4 C 45 % 76 % 1017,1 hPa 0,0 l/m 1,8 km/h (1 Bft) SW 0,00 h 0,6 UV-I 52 W/m 5,4 C 9,4 C 5,2 km/h (1 Bft)
09.03.2017 17:00 23,6 C 7,9 C 46 % 88 % 1016,9 hPa 1,0 l/m 0,4 km/h (0 Bft) SW 0,00 h 0,0 UV-I 12 W/m 6,0 C 7,9 C 1,1 km/h (1 Bft)
09.03.2017 18:00 23,8 C 7,4 C 47 % 93 % 1016,5 hPa 0,2 l/m 0,6 km/h (0 Bft) S 0,00 h 0,0 UV-I 0 W/m 6,4 C 7,4 C 2,3 km/h (1 Bft)
09.03.2017 19:00 24,0 C 7,6 C 48 % 95 % 1016,1 hPa 0,2 l/m 0,9 km/h (0 Bft) S-SW 0,00 h 0,0 UV-I 0 W/m 6,8 C 7,6 C 3,0 km/h (1 Bft)
09.03.2017 20:00 24,0 C 7,8 C 49 % 95 % 1016,0 hPa 0,2 l/m 1,1 km/h (1 Bft) SW 0,00 h 0,0 UV-I 0 W/m 7,0 C 7,8 C 3,3 km/h (1 Bft)
09.03.2017 21:00 24,2 C 7,5 C 50 % 93 % 1016,4 hPa 1,0 l/m 4,5 km/h (1 Bft) W-NW 0,00 h 0,0 UV-I 0 W/m 6,5 C 6,4 C 9,0 km/h (2 Bft)
09.03.2017 22:00 24,2 C 6,1 C 50 % 91 % 1016,7 hPa 1,0 l/m 7,6 km/h (2 Bft) W-NW 0,00 h 0,0 UV-I 0 W/m 4,8 C 3,6 C 12,3 km/h (3 Bft)
09.03.2017 23:00 24,0 C 5,7 C 50 % 92 % 1016,8 hPa 0,0 l/m 6,2 km/h (2 Bft) W-NW 0,00 h 0,0 UV-I 0 W/m 4,5 C 4,0 C 11,0 km/h (2 Bft)
10.03.2017 00:00 23,7 C 5,0 C 51 % 89 % 1017,7 hPa 0,0 l/m 11,1 km/h (2 Bft) W-NW 0,00 h 0,0 UV-I 0 W/m 3,3 C 1,5 C 18,1 km/h (3 Bft)
10.03.2017 01:00 23,5 C 4,3 C 51 % 86 % 1018,7 hPa 0,0 l/m 8,6 km/h (2 Bft) NW 0,00 h 0,0 UV-I 0 W/m 2,2 C 1,9 C 15,3 km/h (3 Bft)
10.03.2017 02:00 23,3 C 4,2 C 51 % 86 % 1018,9 hPa 0,0 l/m 8,6 km/h (2 Bft) W 0,00 h 0,0 UV-I 0 W/m 2,0 C 2,0 C 15,1 km/h (3 Bft)
10.03.2017 03:00 23,3 C 4,4 C 51 % 86 % 1019,2 hPa 0,0 l/m 11,5 km/h (2 Bft) W-NW 0,00 h 0,0 UV-I 0 W/m 2,3 C 0,5 C 18,2 km/h (3 Bft)
10.03.2017 04:00 23,2 C 3,9 C 51 % 89 % 1019,9 hPa 0,2 l/m 10,6 km/h (2 Bft) W-NW 0,00 h 0,0 UV-I 0 W/m 2,3 C 0,6 C 17,7 km/h (3 Bft)
10.03.2017 05:00 23,2 C 3,8 C 51 % 87 % 1020,7 hPa 0,0 l/m 9,8 km/h (2 Bft) NW 0,00 h 0,0 UV-I 0 W/m 1,8 C 0,7 C 16,3 km/h (3 Bft)
10.03.2017 06:00 23,1 C 3,6 C 51 % 83 % 1021,6 hPa 0,0 l/m 12,6 km/h (3 Bft) W-NW 0,00 h 0,0 UV-I 5 W/m 0,9 C -0,9 C 17,7 km/h (3 Bft)
10.03.2017 07:00 23,4 C 3,4 C 53 % 81 % 1022,3 hPa 0,0 l/m 10,8 km/h (2 Bft) W-NW 0,00 h 0,0 UV-I 24 W/m 0,5 C -0,2 C 16,6 km/h (3 Bft)
10.03.2017 08:00 23,4 C 3,8 C 53 % 80 % 1023,0 hPa 0,0 l/m 13,0 km/h (3 Bft) NW 0,00 h 0,6 UV-I 67 W/m 0,7 C -1,0 C 19,5 km/h (3 Bft)
10.03.2017 09:00 23,6 C 4,7 C 52 % 76 % 1023,6 hPa 0,0 l/m 17,8 km/h (3 Bft) NW 0,67 h 1,0 UV-I 242 W/m 0,9 C -2,4 C 28,3 km/h (4 Bft)
10.03.2017 10:00 23,7 C 5,7 C 51 % 72 % 1023,9 hPa 0,0 l/m 19,3 km/h (3 Bft) NW 1,00 h 1,7 UV-I 329 W/m 1,0 C -1,8 C 30,3 km/h (5 Bft)
10.03.2017 11:00 23,5 C 6,1 C 47 % 67 % 1024,4 hPa 0,0 l/m 15,7 km/h (3 Bft) NW 1,00 h 1,6 UV-I 283 W/m 0,4 C 0,4 C 25,1 km/h (4 Bft)
10.03.2017 12:00 23,8 C 7,0 C 46 % 62 % 1024,8 hPa 0,0 l/m 12,9 km/h (3 Bft) NW 1,00 h 2,0 UV-I 404 W/m 0,3 C 2,8 C 20,0 km/h (4 Bft)
10.03.2017 13:00 23,9 C 6,9 C 45 % 62 % 1025,1 hPa 0,0 l/m 12,7 km/h (3 Bft) W-NW 0,53 h 1,1 UV-I 177 W/m 0,0 C 2,8 C 19,7 km/h (3 Bft)
10.03.2017 14:00 23,5 C 7,9 C 46 % 59 % 1025,2 hPa 0,0 l/m 11,4 km/h (2 Bft) NW 0,95 h 1,6 UV-I 364 W/m 0,4 C 4,6 C 18,4 km/h (3 Bft)
10.03.2017 15:00 23,3 C 7,8 C 46 % 58 % 1024,9 hPa 0,0 l/m 9,8 km/h (2 Bft) NW 0,37 h 0,9 UV-I 158 W/m -0,1 C 5,2 C 16,1 km/h (3 Bft)
10.03.2017 16:00 23,3 C 7,9 C 47 % 56 % 1025,0 hPa 0,0 l/m 9,7 km/h (2 Bft) NW 0,55 h 0,6 UV-I 185 W/m -0,4 C 5,5 C 16,1 km/h (3 Bft)
10.03.2017 17:00 23,2 C 6,9 C 47 % 58 % 1025,4 hPa 0,0 l/m 6,7 km/h (2 Bft) NW 0,00 h 0,0 UV-I 40 W/m -0,9 C 5,8 C 11,9 km/h (2 Bft)
10.03.2017 18:00 23,3 C 5,6 C 48 % 62 % 1025,8 hPa 0,0 l/m 3,0 km/h (1 Bft) NW 0,00 h 0,0 UV-I 6 W/m -1,1 C 5,2 C 5,8 km/h (2 Bft)
10.03.2017 19:00 23,7 C 4,4 C 48 % 67 % 1026,4 hPa 0,0 l/m 0,0 km/h (0 Bft) N 0,00 h 0,0 UV-I 0 W/m -1,2 C 4,4 C 0,0 km/h (0 Bft)
10.03.2017 20:00 23,8 C 3,7 C 49 % 72 % 1027,0 hPa 0,0 l/m 0,0 km/h (0 Bft) N 0,00 h 0,0 UV-I 0 W/m -0,8 C 3,7 C 0,0 km/h (0 Bft)
10.03.2017 21:00 24,2 C 3,0 C 49 % 77 % 1027,2 hPa 0,0 l/m 0,0 km/h (0 Bft) N 0,00 h 0,0 UV-I 0 W/m -0,7 C 3,0 C 0,0 km/h (0 Bft)
10.03.2017 22:00 24,4 C 2,1 C 49 % 80 % 1027,4 hPa 0,0 l/m 0,0 km/h (0 Bft) N 0,00 h 0,0 UV-I 0 W/m -1,0 C 2,1 C 0,0 km/h (0 Bft)
10.03.2017 23:00 24,2 C 0,7 C 49 % 83 % 1027,5 hPa 0,0 l/m 0,0 km/h (0 Bft) N 0,00 h 0,0 UV-I 0 W/m -1,8 C 0,7 C 0,0 km/h (0 Bft)
11.03.2017 00:00 24,0 C -0,6 C 50 % 86 % 1027,8 hPa 0,0 l/m 0,0 km/h (0 Bft) N 0,00 h 0,0 UV-I 0 W/m -2,7 C -0,6 C 0,0 km/h (0 Bft)
11.03.2017 01:00 23,7 C -1,3 C 50 % 88 % 1027,8 hPa 0,0 l/m 0,0 km/h (0 Bft) N 0,00 h 0,0 UV-I 0 W/m -3,1 C -1,3 C 0,0 km/h (0 Bft)
11.03.2017 02:00 23,4 C -1,9 C 50 % 90 % 1027,6 hPa 0,0 l/m 0,0 km/h (0 Bft) N 0,00 h 0,0 UV-I 0 W/m -3,3 C -1,9 C 0,0 km/h (0 Bft)
11.03.2017 03:00 23,3 C -2,4 C 50 % 90 % 1027,3 hPa 0,0 l/m 0,0 km/h (0 Bft) N 0,00 h 0,0 UV-I 0 W/m -3,8 C -2,4 C 0,0 km/h (0 Bft)
11.03.2017 04:00 23,2 C -2,7 C 50 % 91 % 1026,9 hPa 0,0 l/m 0,0 km/h (0 Bft) N 0,00 h 0,0 UV-I 0 W/m -3,9 C -2,7 C 0,0 km/h (0 Bft)
11.03.2017 05:00 23,1 C -2,4 C 50 % 92 % 1026,5 hPa 0,0 l/m 0,0 km/h (0 Bft) N 0,00 h 0,0 UV-I 0 W/m -3,5 C -2,4 C 0,0 km/h (0 Bft)
11.03.2017 06:00 23,0 C -2,2 C 50 % 93 % 1026,5 hPa 0,0 l/m 0,0 km/h (0 Bft) N 0,00 h 0,0 UV-I 9 W/m -3,1 C -2,2 C 0,1 km/h (0 Bft)
11.03.2017 07:00 23,0 C -1,7 C 50 % 94 % 1026,6 hPa 0,0 l/m 0,0 km/h (0 Bft) N 0,00 h 0,0 UV-I 38 W/m -2,5 C -1,7 C 0,0 km/h (0 Bft)
11.03.2017 08:00 23,0 C 0,1 C 50 % 93 % 1026,6 hPa 0,0 l/m 0,0 km/h (0 Bft) N 0,48 h 0,7 UV-I 153 W/m -0,9 C 0,1 C 0,0 km/h (0 Bft)
11.03.2017 09:00 23,4 C 2,8 C 50 % 87 % 1026,1 hPa 0,0 l/m 0,0 km/h (0 Bft) N 1,00 h 1,2 UV-I 261 W/m 0,9 C 2,8 C 0,0 km/h (0 Bft)
11.03.2017 10:00 23,2 C 6,1 C 46 % 72 % 1025,8 hPa 0,0 l/m 0,2 km/h (0 Bft) W-SW 1,00 h 2,1 UV-I 521 W/m 1,4 C 6,1 C 0,7 km/h (0 Bft)
11.03.2017 11:00 23,3 C 7,0 C 47 % 63 % 1025,5 hPa 0,0 l/m 0,8 km/h (0 Bft) W 1,00 h 1,9 UV-I 327 W/m 0,3 C 7,0 C 2,8 km/h (1 Bft)
11.03.2017 12:00 23,3 C 8,5 C 44 % 54 % 1024,9 hPa 0,0 l/m 0,2 km/h (0 Bft) W 1,00 h 2,5 UV-I 459 W/m -0,3 C 8,5 C 0,9 km/h (0 Bft)
11.03.2017 13:00 22,6 C 9,7 C 40 % 49 % 1024,0 hPa 0,0 l/m 0,3 km/h (0 Bft) N-NO 1,00 h 2,7 UV-I 594 W/m -0,5 C 9,7 C 1,4 km/h (1 Bft)
11.03.2017 14:00 22,6 C 9,6 C 37 % 46 % 1023,1 hPa 0,0 l/m 1,6 km/h (1 Bft) S-SO 1,00 h 1,9 UV-I 453 W/m -1,4 C 9,6 C 4,3 km/h (1 Bft)
11.03.2017 15:00 23,1 C 9,2 C 42 % 47 % 1022,6 hPa 0,0 l/m 0,8 km/h (0 Bft) S-SO 0,58 h 1,1 UV-I 234 W/m -1,5 C 9,2 C 2,3 km/h (1 Bft)
11.03.2017 16:00 23,3 C 9,3 C 43 % 45 % 1022,2 hPa 0,0 l/m 1,9 km/h (1 Bft) N-NO 0,13 h 0,6 UV-I 111 W/m -2,1 C 9,3 C 4,4 km/h (1 Bft)
11.03.2017 17:00 23,7 C 8,5 C 44 % 43 % 1022,2 hPa 0,0 l/m 0,0 km/h (0 Bft) N 0,00 h 0,0 UV-I 34 W/m -3,2 C 8,5 C 0,2 km/h (0 Bft)
11.03.2017 18:00 24,1 C 7,0 C 46 % 54 % 1022,4 hPa 0,0 l/m 0,1 km/h (0 Bft) NO 0,00 h 0,0 UV-I 5 W/m -1,6 C 7,0 C 0,7 km/h (0 Bft)
11.03.2017 19:00 23,9 C 5,7 C 46 % 61 % 1022,5 hPa 0,0 l/m 0,0 km/h (0 Bft) N 0,00 h 0,0 UV-I 0 W/m -1,2 C 5,7 C 0,2 km/h (0 Bft)
11.03.2017 20:00 24,0 C 4,1 C 48 % 67 % 1022,6 hPa 0,0 l/m 0,3 km/h (0 Bft) O-NO 0,00 h 0,0 UV-I 0 W/m -1,5 C 4,1 C 1,4 km/h (1 Bft)
11.03.2017 21:00 24,3 C 2,9 C 48 % 72 % 1022,7 hPa 0,0 l/m 0,9 km/h (0 Bft) O-NO 0,00 h 0,0 UV-I 0 W/m -1,7 C 2,9 C 3,1 km/h (1 Bft)
11.03.2017 22:00 24,4 C 2,2 C 48 % 76 % 1022,6 hPa 0,0 l/m 0,6 km/h (0 Bft) O-NO 0,00 h 0,0 UV-I 0 W/m -1,5 C 2,2 C 2,7 km/h (1 Bft)
11.03.2017 23:00 24,0 C 1,8 C 49 % 79 % 1022,4 hPa 0,0 l/m 1,9 km/h (1 Bft) O-NO 0,00 h 0,0 UV-I 0 W/m -1,4 C 1,8 C 5,4 km/h (1 Bft)
12.03.2017 00:00 23,7 C 1,5 C 49 % 82 % 1022,1 hPa 0,0 l/m 2,3 km/h (1 Bft) O-NO 0,00 h 0,0 UV-I 0 W/m -1,2 C 1,5 C 5,9 km/h (2 Bft)
12.03.2017 01:00 23,5 C 1,0 C 50 % 84 % 1021,9 hPa 0,0 l/m 1,5 km/h (1 Bft) O-NO 0,00 h 0,0 UV-I 0 W/m -1,3 C 1,0 C 4,7 km/h (1 Bft)
12.03.2017 02:00 23,4 C 0,3 C 50 % 85 % 1021,6 hPa 0,0 l/m 1,4 km/h (1 Bft) O-NO 0,00 h 0,0 UV-I 0 W/m -1,9 C 0,3 C 3,3 km/h (1 Bft)
12.03.2017 03:00 23,3 C -1,2 C 50 % 87 % 1021,2 hPa 0,0 l/m 1,3 km/h (1 Bft) N 0,00 h 0,0 UV-I 0 W/m -3,0 C -1,2 C 1,9 km/h (1 Bft)
12.03.2017 04:00 23,2 C -2,1 C 50 % 89 % 1020,9 hPa 0,0 l/m 0,1 km/h (0 Bft) N 0,00 h 0,0 UV-I 0 W/m -3,7 C -2,1 C 0,4 km/h (0 Bft)
12.03.2017 05:00 23,1 C -2,8 C 51 % 89 % 1020,6 hPa 0,0 l/m 0,8 km/h (0 Bft) N 0,00 h 0,0 UV-I 0 W/m -4,4 C -2,8 C 2,0 km/h (1 Bft)
12.03.2017 06:00 23,1 C -2,6 C 51 % 92 % 1020,7 hPa 0,0 l/m 1,5 km/h (1 Bft) NO 0,00 h 0,0 UV-I 9 W/m -3,7 C -2,6 C 3,3 km/h (1 Bft)
12.03.2017 07:00 23,2 C -1,0 C 52 % 94 % 1021,0 hPa 0,0 l/m 0,6 km/h (0 Bft) O-NO 0,00 h 0,0 UV-I 43 W/m -1,8 C -1,0 C 2,0 km/h (1 Bft)
12.03.2017 08:00 23,2 C 1,1 C 52 % 93 % 1021,1 hPa 0,0 l/m 1,9 km/h (1 Bft) O-NO 0,00 h 0,5 UV-I 91 W/m 0,1 C 1,0 C 4,8 km/h (1 Bft)
12.03.2017 09:00 23,2 C 2,7 C 52 % 85 % 1021,1 hPa 0,0 l/m 3,0 km/h (1 Bft) O-NO 0,65 h 1,0 UV-I 183 W/m 0,5 C 2,5 C 6,2 km/h (2 Bft)
12.03.2017 10:00 23,5 C 4,2 C 52 % 78 % 1020,8 hPa 0,0 l/m 7,7 km/h (2 Bft) O-SO 0,95 h 2,1 UV-I 515 W/m 0,7 C 2,5 C 15,0 km/h (3 Bft)
12.03.2017 11:00 23,7 C 4,8 C 50 % 68 % 1020,5 hPa 0,0 l/m 7,9 km/h (2 Bft) O-SO 0,80 h 2,2 UV-I 379 W/m -0,6 C 2,9 C 15,2 km/h (3 Bft)
12.03.2017 12:00 23,8 C 5,5 C 52 % 63 % 1020,0 hPa 0,0 l/m 5,3 km/h (1 Bft) O 1,00 h 2,3 UV-I 462 W/m -0,9 C 4,9 C 12,1 km/h (2 Bft)
12.03.2017 13:00 24,1 C 6,6 C 51 % 59 % 1019,4 hPa 0,0 l/m 7,7 km/h (2 Bft) O-NO 1,00 h 2,3 UV-I 520 W/m -0,8 C 4,9 C 14,2 km/h (3 Bft)
12.03.2017 14:00 24,4 C 6,5 C 51 % 58 % 1019,2 hPa 0,0 l/m 8,1 km/h (2 Bft) O-SO 1,00 h 1,9 UV-I 490 W/m -1,3 C 4,5 C 14,7 km/h (3 Bft)
12.03.2017 15:00 24,2 C 6,6 C 50 % 56 % 1018,7 hPa 0,0 l/m 7,3 km/h (2 Bft) SO 1,00 h 1,2 UV-I 328 W/m -1,5 C 4,8 C 13,6 km/h (3 Bft)
12.03.2017 16:00 24,0 C 6,1 C 48 % 55 % 1018,6 hPa 0,0 l/m 4,2 km/h (1 Bft) O-NO 0,25 h 0,6 UV-I 118 W/m -2,2 C 5,5 C 9,1 km/h (2 Bft)
12.03.2017 17:00 24,2 C 5,1 C 50 % 60 % 1018,7 hPa 0,0 l/m 1,6 km/h (1 Bft) O-SO 0,00 h 0,0 UV-I 43 W/m -2,1 C 5,0 C 4,8 km/h (1 Bft)
12.03.2017 18:00 24,1 C 3,8 C 50 % 64 % 1019,3 hPa 0,0 l/m 2,4 km/h (1 Bft) O-NO 0,00 h 0,0 UV-I 5 W/m -2,3 C 3,8 C 6,0 km/h (2 Bft)
12.03.2017 19:00 24,0 C 2,4 C 51 % 69 % 1020,0 hPa 0,0 l/m 2,8 km/h (1 Bft) O-NO 0,00 h 0,0 UV-I 0 W/m -2,8 C 2,4 C 7,1 km/h (2 Bft)
12.03.2017 20:00 24,1 C 1,3 C 54 % 72 % 1020,6 hPa 0,0 l/m 3,6 km/h (1 Bft) O-NO 0,00 h 0,0 UV-I 0 W/m -3,1 C 1,3 C 8,1 km/h (2 Bft)
12.03.2017 21:00 24,4 C 0,8 C 54 % 75 % 1021,0 hPa 0,0 l/m 1,3 km/h (1 Bft) O-NO 0,00 h 0,0 UV-I 0 W/m -3,2 C 0,8 C 4,0 km/h (1 Bft)
12.03.2017 22:00 24,6 C 0,7 C 53 % 75 % 1021,5 hPa 0,0 l/m 1,3 km/h (1 Bft) O 0,00 h 0,0 UV-I 0 W/m -3,2 C 0,7 C 4,1 km/h (1 Bft)
12.03.2017 23:00 24,3 C 0,7 C 54 % 75 % 1021,8 hPa 0,0 l/m 1,6 km/h (1 Bft) O 0,00 h 0,0 UV-I 0 W/m -3,1 C 0,7 C 5,1 km/h (1 Bft)
Min-Datum _ 11.03.17 12.03.17 11.03.17 11.03.17 06.03.17 - 06.03.17 - - - - 12.03.17 10.03.17 06.03.17
_ Min-Zeit 13:06 06:09 14:10 14:17 15:52 - 04:07 - - - - 06:09 01:11 07:07
Minimum _ 22,3 C -3,3 C 33 % 42 % 1000,2 hPa - 0,0 km/h (0 Bft) - - - - -4,7 C -7,7 C 0,0 km/h (0 Bft)
Max-Datum _ 07.03.17 09.03.17 07.03.17 09.03.17 11.03.17 07.03.17 09.03.17 - 08.03.17 11.03.17 10.03.17 09.03.17 09.03.17 09.03.17
_ Max-Zeit 22:19 15:22 07:06 03:13 00:46 22:12 22:06 - 14:14 12:31 12:19 19:57 15:22 22:06
Maximum _ 24,7 C 10,6 C 55 % 97 % 1028,0 hPa 1,2 l/m 37,0 km/h
W-NW (5 Bft)
- 0,03 h 3,3 UV-I 909 W/m 7,0 C 10,6 C 49,9 km/h
NW (6 Bft)
Durchschnitt _ 23,7 C 4,0 C 50 % 83 % 1017,3 hPa #12,0 l/m 3,8 km/h (1 Bft) S #34:47 h 1,2 UV-I 166 W/m 1,2 C 3,1 C 7,2 km/h (2 Bft)